Regional Weather Roundup
Issued by NWS

Home | Current Version | Previous Version | Text Only | Print | Product List | Glossary On
Versions: 1 2 3 4 5 6 7 8 9 10 11 12 13 14 15 16 17 18 19 20 21 22 23 24 25 26 27 28 29 30 31 32 33 34 35 36 37 38 39 40 41 42 43 44 45 46 47 48 49 50
000
ASUS43 KTOP 271908
RWRKS

WEATHER ROUNDUP FOR KANSAS
NATIONAL WEATHER SERVICE GOODLAND KS
200 PM CDT FRI MAY 27 2016

NOTE:  "FAIR" INDICATES FEW OR NO CLOUDS BELOW 12,000 FEET WITH NO
SIGNIFICANT WEATHER AND/OR OBSTRUCTIONS TO VISIBILITY.

KSZ001>006-013>018-027>032-041>047-272000-
NORTHWEST KANSAS

CITY           SKY/WX    TMP DP  RH WIND       PRES   REMARKS
GOODLAND       LGT RAIN  59  53  80 NE16      29.75F
HAYS           PTSUNNY   39 N/A N/A NE10      29.68F WCI  32
HILL CITY      CLOUDY    62  59  90 E9        29.73F
RUSSELL        PTSUNNY   71  65  81 SE10      29.67F
$$

KSZ061>065-074>080-084>089-272000-
SOUTHWEST KANSAS

CITY           SKY/WX    TMP DP  RH WIND       PRES   REMARKS
DODGE CITY     MOSUNNY   72  53  51 W13G18    29.69S
ELKHART          N/A     66  42  41 W16         N/A
GARDEN CITY    MOSUNNY   69  46  43 VRB7      29.69F
GREAT BEND     MOSUNNY   72  59  64 S6        29.67S
LIBERAL        MOSUNNY   73  45  35 W23G29    29.73S
PRATT          MOSUNNY   72  56  56 S15       29.69S
$$

KSZ066>073-081>083-090>101-272000-
SOUTHEAST KANSAS

CITY           SKY/WX    TMP DP  RH WIND       PRES   REMARKS
CHANUTE        PTSUNNY   73  66  78 S7        29.75S
COFFEYVILLE    LGT RAIN  73  67  81 SW7       29.75R
HUTCHINSON     PTSUNNY   77  63  61 S12       29.69F
MEDICINE LODGE   N/A     76  55  48 SW15      29.68F
NEWTON         PTSUNNY   73  63  68 S9          N/A
PARSONS        PTSUNNY   74  67  78 S3        29.75S
WICHITA INTL   CLOUDY    75  66  73 SE10      29.69F
WICHITA JABRA  MOSUNNY   75  66  73 SE8       29.71F
WICHITA MCCONL CLOUDY    76  66  71 SE10      29.70F
WINFIELD       CLOUDY    79  66  64 S7        29.71F
$$

KSZ007>012-019>026-033>040-048>060-102>105-272000-
NORTHEAST KANSAS

CITY           SKY/WX    TMP DP  RH WIND       PRES   REMARKS
CONCORDIA      MOSUNNY   72  63  73 SE7       29.71F
EMPORIA        CLOUDY    71  65  81 SE13      29.73S
LAWRENCE       CLOUDY    75  64  68 CALM      29.72F
MANHATTAN      CLOUDY    75  63  66 S8        29.70F
MARYSVILLE     PTSUNNY   73  61  64 S3        29.72F
OLATHE IND     CLOUDY    77  67  71 S8        29.74S
OLATHE EXE     MOSUNNY   76  65  68 S10       29.73F
SALINA         MOSUNNY   77  66  68 S15       29.70F
TOPEKA BILLARD TSTM      72  63  73 NE3       29.71F
TOPEKA FORBES  LGT RAIN  72  65  78 S5        29.73S
$$




USA.gov is the U.S. government's official web portal to all federal, state and local government web resources and services.